Weather History for Montgomery, AL

Change the Weather History Date:

Sunday, December 15, 2013

  Actual Average Record
Temperature  
Mean Temperature 42 °F 48 °F  
Max Temperature 52 °F 59 °F 79 °F (1971)
Min Temperature 32 °F 37 °F 16 °F (1901)
Degree Days  
Heating Degree Days 23 17  
Month to date heating degree days 162 230  
Since 1 July heating degree days 530 601  
Moisture  
Dew Point 34 °F    
Average Humidity 76    
Maximum Humidity 89    
Minimum Humidity 62    
Precipitation  
Precipitation 0.00 in 0.15 in 2.62 in (1956)
Month to date precipitation 1.97 2.43  
Year to date precipitation 49.23 50.64  
Snow  
Snow 0.00 in 0.00 in - ()
Month to date snowfall 0.0 0.0  
Since 1 July snowfall 0.0 0.0  
Snow Depth 0.00 in    
Sea Level Pressure  
Sea Level Pressure 30.17 in    
Wind  
Wind Speed 11 mph (NW)    
Max Wind Speed 21 mph    
Max Gust Speed 25 mph    
Visibility 10 miles    
Events      
T = Trace of Precipitation, MM = Missing Value Source: NWS Daily Summary

Daily Weather History Graph

Daily Weather History Graph

Search for Another Location

Airport:

Trip Planner

Search our weather history database for the weather conditions in past years. The results will help you decide how hot, cold, wet, or windy it might be!

Date:

Astronomy

Dec. 15, 2013 Rise Set
Actual Time 6:39 AM CST 4:42 PM CST
Civil Twilight 6:12 AM CST 5:09 PM CST
Nautical Twilight 5:41 AM CST 5:40 PM CST
Astronomical Twilight 5:11 AM CST 6:09 PM CST
Moon 3:42 PM CST (12/15) 4:59 AM CST (12/15)
Length of Visible Light 10h 56m
Length of Day
10h 02m
Waxing Gibbous, 98% of the Moon is Illuminated
Dec 15
Waxing Gibbous
Dec 17
Full
Dec 25
Last Quarter
Jan 1
New
Jan 7
First Quarter

Hourly Weather History & Observations

Time (CST) Temp. Windchill Dew Point Humidity Pressure Visibility Wind Dir Wind Speed Gust Speed Precip Events Conditions
12:02 AM 51.8 °F - 48.2 °F 88% 29.96 in 10.0 mi WNW 17.3 mph 21.9 mph N/A   Overcast
12:29 AM 51.8 °F - 46.4 °F 82% 29.96 in 10.0 mi NW 16.1 mph 20.7 mph N/A   Overcast
12:53 AM 50.0 °F - 46.0 °F 86% 29.97 in 10.0 mi WNW 10.4 mph - N/A   Overcast
1:53 AM 46.0 °F 39.0 °F 41.0 °F 83% 30.00 in 10.0 mi WNW 17.3 mph 24.2 mph N/A   Overcast
2:11 AM 46.4 °F 40.4 °F 39.2 °F 76% 30.02 in 10.0 mi WNW 13.8 mph 19.6 mph N/A   Overcast
2:53 AM 45.0 °F 38.2 °F 39.0 °F 80% 30.04 in 10.0 mi NW 15.0 mph 21.9 mph N/A   Overcast
3:53 AM 44.1 °F 36.8 °F 37.0 °F 76% 30.05 in 10.0 mi NW 16.1 mph - N/A   Overcast
4:53 AM 43.0 °F 36.4 °F 36.0 °F 76% 30.08 in 10.0 mi NW 12.7 mph - N/A   Overcast
5:53 AM 43.0 °F 36.8 °F 36.0 °F 76% 30.11 in 10.0 mi WNW 11.5 mph - N/A   Overcast
6:53 AM 43.0 °F 36.8 °F 34.0 °F 71% 30.14 in 10.0 mi NW 11.5 mph 20.7 mph N/A   Overcast
7:53 AM 42.1 °F 35.2 °F 33.1 °F 70% 30.17 in 10.0 mi NW 12.7 mph - N/A   Overcast
8:53 AM 43.0 °F 36.4 °F 33.1 °F 68% 30.19 in 10.0 mi NNW 12.7 mph - N/A   Overcast
9:53 AM 44.1 °F 37.7 °F 32.0 °F 63% 30.20 in 10.0 mi North 12.7 mph 19.6 mph N/A   Overcast
10:53 AM 45.0 °F 39.3 °F 34.0 °F 65% 30.18 in 10.0 mi NW 11.5 mph - N/A   Overcast
11:53 AM 44.1 °F 37.7 °F 33.1 °F 65% 30.19 in 10.0 mi NW 12.7 mph - N/A   Overcast
12:53 PM 44.1 °F 37.1 °F 33.1 °F 65% 30.19 in 10.0 mi NW 15.0 mph - N/A   Overcast
1:53 PM 45.0 °F 39.7 °F 33.1 °F 63% 30.18 in 10.0 mi NW 10.4 mph - N/A   Overcast
2:53 PM 44.1 °F 38.1 °F 33.1 °F 65% 30.20 in 10.0 mi NW 11.5 mph - N/A   Overcast
3:53 PM 43.0 °F 36.4 °F 32.0 °F 65% 30.22 in 10.0 mi NW 12.7 mph - N/A   Overcast
4:53 PM 42.1 °F 35.7 °F 30.9 °F 65% 30.24 in 10.0 mi NNW 11.5 mph - N/A   Overcast
5:53 PM 41.0 °F 35.2 °F 30.9 °F 67% 30.25 in 10.0 mi NNW 9.2 mph - N/A   Overcast
6:53 PM 39.0 °F 34.0 °F 30.0 °F 70% 30.27 in 10.0 mi NW 6.9 mph - N/A   Mostly Cloudy
7:11 PM 39.2 °F 34.2 °F 30.2 °F 70% 30.26 in 10.0 mi NW 6.9 mph - N/A   Scattered Clouds
7:53 PM 37.0 °F 34.5 °F 30.0 °F 76% 30.27 in 10.0 mi NW 3.5 mph - N/A   Clear
8:53 PM 35.1 °F 32.2 °F 28.9 °F 78% 30.28 in 10.0 mi NW 3.5 mph - N/A   Clear
9:53 PM 34.0 °F 29.8 °F 28.9 °F 82% 30.28 in 10.0 mi NW 4.6 mph - N/A   Clear
10:53 PM 33.1 °F 27.7 °F 28.9 °F 85% 30.30 in 10.0 mi WNW 5.8 mph - N/A   Clear
11:53 PM 33.1 °F 28.7 °F 28.9 °F 85% 30.29 in 10.0 mi WNW 4.6 mph - N/A   Clear